Location: Maignaut
(43.8886°N, 0.4051°E)
Time: 18:52:57
(UTC+00:00)

USA 267 - Pass Details

Date: 17 January 2021
Orbit: 1102 x 1106 km, 123.0° (Epoch: 22 February)

Event Time Altitude Azimuth Distance (km) Brightness Sun altitude
Exits shadow 20:17:15 55° 292° (WNW) 1,312 3.8 -37.1°
Drops below altitude 10° 20:22:40 10° 250° (WSW) 2,958 6.1 -38.0°
Sets 20:25:10 0° 247° (WSW) 3,914 6.9 -38.5°
